Year,Month,Day,Hour,Minute,Value (Times are PST for temperature in C)
2017,07,22,00,00,14.30
2017,07,22,00,01,14.30
2017,07,22,00,02,14.30
2017,07,22,06,51,14.10
2017,07,22,06,52,14.20
2017,07,22,06,53,14.10
2017,07,22,06,54,14.20
2017,07,22,06,55,14.20
2017,07,22,06,56,14.20
2017,07,22,06,57,14.20
2017,07,22,06,58,14.20
2017,07,22,06,59,14.20
2017,07,22,07,00,14.20
2017,07,22,07,01,14.20
2017,07,22,07,02,14.20
2017,07,22,07,03,14.20
2017,07,22,07,04,14.20
2017,07,22,07,05,14.20
2017,07,22,07,06,14.20
2017,07,22,07,07,14.20
2017,07,22,07,08,14.20
2017,07,22,07,09,14.20
2017,07,22,07,10,14.20
2017,07,22,07,11,14.20
2017,07,22,07,12,14.20
2017,07,22,07,13,14.20
2017,07,22,07,14,14.20
2017,07,22,07,15,14.20
2017,07,22,07,16,14.30
2017,07,22,07,17,14.30
2017,07,22,07,18,14.30
2017,07,22,07,19,14.30
2017,07,22,07,20,14.30
2017,07,22,07,21,14.30
2017,07,22,07,22,14.30
2017,07,22,07,23,14.30
2017,07,22,07,24,14.30
2017,07,22,07,25,14.30
2017,07,22,07,26,14.30
2017,07,22,07,27,14.30
2017,07,22,07,28,14.30
2017,07,22,07,29,14.30
2017,07,22,07,30,14.30
2017,07,22,07,31,14.30
2017,07,22,07,32,14.30
2017,07,22,07,33,14.30
2017,07,22,07,34,14.30
2017,07,22,07,35,14.30
2017,07,22,07,36,14.30
2017,07,22,07,37,14.30
2017,07,22,07,38,14.30
2017,07,22,07,39,14.30
2017,07,22,07,40,14.30
2017,07,22,07,41,14.40
2017,07,22,07,42,14.40
2017,07,22,07,43,14.40
2017,07,22,07,44,14.40
2017,07,22,07,45,14.40
2017,07,22,07,46,14.40
2017,07,22,07,47,14.40
2017,07,22,07,48,14.40
2017,07,22,07,49,14.40
2017,07,22,07,50,14.40
2017,07,22,07,51,14.40
2017,07,22,07,52,14.40
2017,07,22,07,53,14.40
2017,07,22,07,54,14.50
2017,07,22,07,55,14.50
2017,07,22,07,56,14.50
2017,07,22,07,57,14.50
2017,07,22,07,58,14.50
2017,07,22,07,59,14.50
2017,07,22,08,00,14.50
2017,07,22,08,01,14.40
2017,07,22,08,02,14.40
2017,07,22,08,03,14.40
2017,07,22,08,04,14.40
2017,07,22,08,05,14.40
2017,07,22,08,06,14.40
2017,07,22,08,07,14.50
2017,07,22,08,08,14.50
2017,07,22,08,09,14.50
2017,07,22,08,10,14.50
2017,07,22,08,11,14.50
2017,07,22,08,12,14.50
2017,07,22,08,13,14.60
2017,07,22,08,14,14.60
2017,07,22,08,15,14.60
2017,07,22,08,16,14.60
2017,07,22,08,17,14.60
2017,07,22,08,18,14.70
2017,07,22,08,19,14.70
2017,07,22,08,20,14.70
2017,07,22,08,21,14.70
2017,07,22,08,22,14.80
2017,07,22,08,23,14.80
2017,07,22,08,24,14.80
2017,07,22,08,25,14.80
2017,07,22,08,26,14.80
2017,07,22,08,27,14.90
2017,07,22,08,28,14.90
2017,07,22,08,29,15.00
2017,07,22,08,30,15.00
2017,07,22,08,31,15.10
2017,07,22,08,32,15.10
2017,07,22,08,33,15.10
2017,07,22,08,34,15.10
2017,07,22,08,35,15.10
2017,07,22,08,36,15.10
2017,07,22,08,37,15.10
2017,07,22,08,38,15.00
2017,07,22,08,39,15.10
2017,07,22,08,40,15.10
2017,07,22,08,41,15.00
2017,07,22,08,42,15.10
2017,07,22,08,43,15.10
2017,07,22,08,44,15.10
2017,07,22,08,45,15.10
2017,07,22,08,46,15.20
2017,07,22,08,47,15.20
2017,07,22,08,48,15.20
2017,07,22,08,49,15.20
2017,07,22,08,50,15.20
2017,07,22,08,51,15.20
2017,07,22,08,52,15.20
2017,07,22,08,53,15.20
2017,07,22,08,54,15.20
2017,07,22,08,55,15.20
2017,07,22,08,56,15.20
2017,07,22,08,57,15.20
2017,07,22,08,58,15.20
2017,07,22,08,59,15.20
2017,07,22,09,00,15.20
2017,07,22,09,01,15.10
2017,07,22,09,02,15.20
2017,07,22,09,03,15.20
2017,07,22,09,04,15.20
2017,07,22,09,05,15.20
2017,07,22,09,06,15.20
2017,07,22,09,07,15.20
2017,07,22,09,08,15.30
2017,07,22,09,09,15.30
2017,07,22,09,10,15.30
2017,07,22,09,11,15.30
2017,07,22,09,12,15.30
2017,07,22,09,13,15.40
2017,07,22,09,14,15.40
2017,07,22,09,15,15.40
2017,07,22,09,16,15.40
2017,07,22,09,17,15.40
2017,07,22,09,18,15.50
2017,07,22,09,19,15.50
2017,07,22,09,20,15.50
2017,07,22,09,21,15.50
2017,07,22,09,22,15.50
2017,07,22,09,23,15.50
2017,07,22,09,24,15.50
2017,07,22,09,25,15.50
2017,07,22,09,26,15.50
2017,07,22,09,27,15.50
2017,07,22,09,28,15.50
2017,07,22,09,29,15.50
2017,07,22,09,30,15.50
2017,07,22,09,31,15.50
2017,07,22,09,32,15.50
2017,07,22,09,33,15.50
2017,07,22,09,34,15.50
2017,07,22,09,35,15.50
2017,07,22,09,36,15.50
2017,07,22,09,37,15.50
2017,07,22,09,38,15.50
2017,07,22,09,39,15.60
2017,07,22,09,40,15.60
2017,07,22,09,41,15.60
2017,07,22,09,42,15.70
2017,07,22,09,43,15.70
2017,07,22,09,44,15.70
2017,07,22,09,45,15.70
2017,07,22,09,46,15.80
2017,07,22,09,47,15.80
2017,07,22,09,48,15.80
2017,07,22,09,49,15.80
2017,07,22,09,50,15.80
2017,07,22,09,51,15.80
2017,07,22,09,52,15.80
2017,07,22,09,53,15.80
2017,07,22,09,54,15.80
2017,07,22,09,55,15.80
2017,07,22,09,56,15.80
2017,07,22,09,57,15.80
2017,07,22,09,58,15.80
2017,07,22,09,59,15.80
2017,07,22,10,00,15.80
2017,07,22,10,01,15.90
2017,07,22,10,02,15.90
2017,07,22,10,03,15.90
2017,07,22,10,04,16.00
2017,07,22,10,05,16.00
2017,07,22,10,06,15.90
2017,07,22,10,07,15.90
2017,07,22,10,08,15.90
2017,07,22,10,09,15.90
2017,07,22,10,10,15.90
2017,07,22,10,11,15.90
2017,07,22,10,12,16.00
2017,07,22,10,13,16.00
2017,07,22,10,14,16.00
2017,07,22,10,15,16.00
2017,07,22,10,16,16.00
2017,07,22,10,17,16.00
2017,07,22,10,18,16.00
2017,07,22,10,19,15.90
2017,07,22,10,20,16.00
2017,07,22,10,21,15.90
2017,07,22,10,22,15.90
2017,07,22,10,23,15.90
2017,07,22,10,24,16.00
2017,07,22,10,25,16.00
2017,07,22,10,26,16.00
2017,07,22,10,27,16.00
2017,07,22,10,28,16.10
2017,07,22,10,29,16.10
2017,07,22,10,30,16.10
2017,07,22,10,31,16.10
2017,07,22,10,32,16.10
2017,07,22,10,33,16.10
2017,07,22,10,34,16.10
2017,07,22,10,35,16.20
2017,07,22,10,36,16.20
2017,07,22,10,37,16.20
2017,07,22,10,38,16.20
2017,07,22,10,39,16.30
2017,07,22,10,40,16.30
2017,07,22,10,41,16.30
2017,07,22,10,42,16.40
2017,07,22,10,43,16.40
2017,07,22,10,44,16.40
2017,07,22,10,45,16.40
2017,07,22,10,46,16.40
2017,07,22,10,47,16.50
2017,07,22,10,48,16.50
2017,07,22,10,49,16.50
2017,07,22,10,50,16.50
2017,07,22,10,51,16.60
2017,07,22,10,52,16.60
2017,07,22,10,53,16.60
2017,07,22,10,54,16.60
2017,07,22,10,55,16.60
2017,07,22,10,56,16.60
2017,07,22,10,57,16.60
2017,07,22,10,58,16.60
2017,07,22,10,59,16.60
2017,07,22,11,00,16.70
2017,07,22,11,01,16.70
2017,07,22,11,02,16.70
2017,07,22,11,03,16.70
2017,07,22,11,04,16.70
2017,07,22,11,05,16.70
2017,07,22,11,06,16.70
2017,07,22,11,07,16.70
2017,07,22,11,08,16.70
2017,07,22,11,09,16.70
2017,07,22,11,10,16.70
2017,07,22,11,11,16.70
2017,07,22,11,12,16.70
2017,07,22,11,13,16.70
2017,07,22,11,14,16.80
2017,07,22,11,15,16.80
2017,07,22,11,16,16.80
2017,07,22,11,17,16.90
2017,07,22,11,18,16.90
2017,07,22,11,19,16.90
2017,07,22,11,20,16.90
2017,07,22,11,21,16.90
2017,07,22,11,22,16.90
2017,07,22,11,23,16.90
2017,07,22,11,24,16.90
2017,07,22,11,25,16.90
2017,07,22,11,26,16.90
2017,07,22,11,27,16.90
2017,07,22,11,28,16.90
2017,07,22,11,29,17.00
2017,07,22,11,30,17.00
2017,07,22,11,31,17.00
2017,07,22,11,32,17.00
2017,07,22,11,33,17.00
2017,07,22,11,34,17.00
2017,07,22,11,35,17.00
2017,07,22,11,36,17.00
2017,07,22,11,37,17.10
2017,07,22,11,38,17.10
2017,07,22,11,39,17.10
2017,07,22,11,40,17.10
2017,07,22,11,41,17.10
2017,07,22,11,42,17.10
2017,07,22,11,43,17.10
2017,07,22,11,44,17.00
2017,07,22,11,45,17.00
2017,07,22,11,46,17.00
2017,07,22,11,47,16.90
2017,07,22,11,48,16.90
2017,07,22,11,49,16.90
2017,07,22,11,50,16.90
2017,07,22,11,51,16.90
2017,07,22,11,52,16.90
2017,07,22,11,53,17.00
2017,07,22,11,54,16.90
2017,07,22,11,55,16.90
2017,07,22,11,56,16.90
2017,07,22,11,57,16.90
2017,07,22,11,58,16.90
2017,07,22,11,59,16.90
2017,07,22,12,00,16.90
2017,07,22,12,01,16.90
2017,07,22,12,02,16.90
2017,07,22,12,03,16.90
2017,07,22,12,04,16.90
2017,07,22,12,05,16.90
2017,07,22,12,06,16.90
2017,07,22,12,07,16.90
2017,07,22,12,08,17.00
2017,07,22,12,09,17.00
2017,07,22,12,10,17.00
2017,07,22,12,11,17.00
2017,07,22,12,12,17.00
2017,07,22,12,13,17.00
2017,07,22,12,14,16.90
2017,07,22,12,15,16.90
2017,07,22,12,16,16.90
2017,07,22,12,17,16.90
2017,07,22,12,18,16.90
2017,07,22,12,19,16.90
2017,07,22,12,20,16.90
2017,07,22,12,21,16.90
2017,07,22,12,22,16.90
2017,07,22,12,23,16.90
2017,07,22,12,24,16.90
2017,07,22,12,25,16.90
2017,07,22,12,26,16.90
2017,07,22,12,27,16.90
2017,07,22,12,28,16.90
2017,07,22,12,29,16.90
2017,07,22,12,30,17.00
2017,07,22,12,31,17.00
2017,07,22,12,32,17.00
2017,07,22,12,33,17.00
2017,07,22,12,34,17.00
2017,07,22,12,35,17.00
2017,07,22,12,36,17.00
2017,07,22,12,37,17.10
2017,07,22,12,38,17.10
2017,07,22,12,39,17.10
2017,07,22,12,40,17.10
2017,07,22,12,41,17.10
2017,07,22,12,42,17.10
2017,07,22,12,43,17.10
2017,07,22,12,44,17.10
2017,07,22,12,45,17.20
2017,07,22,12,46,17.20
2017,07,22,12,47,17.20
2017,07,22,12,48,17.10
2017,07,22,12,49,17.10
2017,07,22,12,50,17.10
2017,07,22,12,51,17.10
2017,07,22,12,52,17.10
2017,07,22,12,53,17.00
2017,07,22,12,54,17.00
2017,07,22,12,55,16.90
2017,07,22,12,56,16.90
2017,07,22,12,57,16.90
2017,07,22,12,58,16.90
2017,07,22,12,59,16.90
2017,07,22,13,00,16.90
2017,07,22,13,01,16.80
2017,07,22,13,02,16.80
2017,07,22,13,03,16.80
2017,07,22,13,04,16.80
2017,07,22,13,05,16.80
2017,07,22,13,06,16.70
2017,07,22,13,07,16.70
2017,07,22,13,08,16.70
2017,07,22,13,09,16.70
2017,07,22,13,10,16.60
2017,07,22,13,11,16.60
2017,07,22,13,12,16.60
2017,07,22,13,13,16.60
2017,07,22,13,14,16.60
2017,07,22,13,15,16.60
2017,07,22,13,16,16.60
2017,07,22,13,17,16.50
2017,07,22,13,18,16.60
2017,07,22,13,19,16.60
2017,07,22,13,20,16.60
2017,07,22,13,21,16.60
2017,07,22,13,22,16.60
2017,07,22,13,23,16.60
2017,07,22,13,24,16.60
2017,07,22,13,25,16.60
2017,07,22,13,26,16.70
2017,07,22,13,27,16.70
2017,07,22,13,28,16.70
2017,07,22,13,29,16.80
2017,07,22,13,30,16.80
2017,07,22,13,31,16.80
2017,07,22,13,32,16.90
2017,07,22,13,33,16.90
2017,07,22,13,34,17.00
2017,07,22,13,35,17.00
2017,07,22,13,36,17.10
2017,07,22,13,37,17.10
2017,07,22,13,38,17.10
2017,07,22,13,39,17.10
2017,07,22,13,40,17.20
2017,07,22,13,41,17.20
2017,07,22,13,42,17.20
2017,07,22,13,43,17.30
2017,07,22,13,44,17.30
2017,07,22,13,45,17.30
2017,07,22,13,46,17.30
2017,07,22,13,47,17.30
2017,07,22,13,48,17.40
2017,07,22,13,49,17.40
2017,07,22,13,50,17.40
2017,07,22,13,51,17.40
2017,07,22,13,52,17.50
2017,07,22,13,53,17.50
2017,07,22,13,54,17.50
2017,07,22,13,55,17.60
2017,07,22,13,56,17.60
2017,07,22,13,57,17.60
2017,07,22,13,58,17.60
2017,07,22,13,59,17.60
2017,07,22,14,00,17.60
2017,07,22,14,01,17.60
2017,07,22,14,02,17.70
2017,07,22,14,03,17.70
2017,07,22,14,04,17.70
2017,07,22,14,05,17.70
2017,07,22,14,06,17.70
2017,07,22,14,07,17.70
2017,07,22,14,08,17.60
2017,07,22,14,09,17.60
2017,07,22,14,10,17.70
2017,07,22,14,11,17.70
2017,07,22,14,12,17.70
2017,07,22,14,13,17.70
2017,07,22,14,14,17.60
2017,07,22,14,15,17.60
2017,07,22,14,16,17.50
2017,07,22,14,17,17.50
2017,07,22,14,18,17.50
2017,07,22,14,19,17.40
2017,07,22,14,20,17.40
2017,07,22,14,21,17.40
2017,07,22,14,22,17.40
2017,07,22,14,23,17.40
2017,07,22,14,24,17.40
2017,07,22,14,25,17.30
2017,07,22,14,26,17.30
2017,07,22,14,27,17.40
2017,07,22,14,28,17.40
2017,07,22,14,29,17.40
2017,07,22,14,30,17.40
2017,07,22,14,31,17.50
2017,07,22,14,32,17.60
2017,07,22,14,33,17.60
2017,07,22,14,34,17.60
2017,07,22,14,35,17.70
2017,07,22,14,36,17.70
2017,07,22,14,37,17.70
2017,07,22,14,38,17.80
2017,07,22,14,39,17.80
2017,07,22,14,40,17.90
2017,07,22,14,41,17.90
2017,07,22,14,42,17.90
2017,07,22,14,43,17.90
2017,07,22,14,44,17.90
2017,07,22,14,45,17.90
2017,07,22,14,46,17.90
2017,07,22,14,47,17.90
2017,07,22,14,48,17.90
2017,07,22,14,49,17.90
2017,07,22,14,50,17.90
2017,07,22,14,51,17.90
2017,07,22,14,52,18.00
2017,07,22,14,53,18.00
2017,07,22,14,54,18.00
2017,07,22,14,55,18.10
2017,07,22,14,56,18.20
2017,07,22,14,57,18.30
2017,07,22,14,58,18.40
2017,07,22,14,59,18.40
2017,07,22,15,00,18.60
2017,07,22,15,01,18.70
2017,07,22,15,02,18.80
2017,07,22,15,03,18.80
2017,07,22,15,04,18.80
2017,07,22,15,05,18.80
2017,07,22,15,06,18.80
2017,07,22,15,07,18.80
2017,07,22,15,08,18.80
2017,07,22,15,09,18.80
2017,07,22,15,10,18.80
2017,07,22,15,11,18.80
2017,07,22,15,12,18.90
2017,07,22,15,13,18.90
2017,07,22,15,14,18.90
2017,07,22,15,15,19.00
2017,07,22,15,16,19.10
2017,07,22,15,17,19.10
2017,07,22,15,18,19.20
2017,07,22,15,19,19.20
2017,07,22,15,20,19.20
2017,07,22,15,21,19.20
2017,07,22,15,22,19.20
2017,07,22,15,23,19.10
2017,07,22,15,24,19.10
2017,07,22,15,25,19.10
2017,07,22,15,26,19.10
2017,07,22,15,27,19.10
2017,07,22,15,28,19.10
2017,07,22,15,29,19.10
2017,07,22,15,30,19.10
2017,07,22,15,31,19.10
2017,07,22,15,32,19.10
2017,07,22,15,33,19.10
2017,07,22,15,34,19.10
2017,07,22,15,35,19.10
2017,07,22,15,36,19.10
2017,07,22,15,37,19.00
2017,07,22,15,38,19.00
2017,07,22,15,39,19.00
2017,07,22,15,40,19.00
2017,07,22,15,41,19.00
2017,07,22,15,42,19.00
2017,07,22,15,43,19.00
2017,07,22,15,44,19.00
2017,07,22,15,45,18.90
2017,07,22,15,46,18.90
2017,07,22,15,47,18.80
2017,07,22,15,48,18.80
2017,07,22,15,49,18.70
2017,07,22,15,50,18.70
2017,07,22,15,51,18.70
2017,07,22,15,52,18.80
2017,07,22,15,53,18.80
2017,07,22,15,54,18.80
2017,07,22,15,55,18.90
2017,07,22,15,56,18.90
2017,07,22,15,57,18.90
2017,07,22,15,58,18.90
2017,07,22,15,59,18.90
2017,07,22,16,00,19.00
2017,07,22,16,01,19.00
2017,07,22,16,02,19.10
2017,07,22,16,03,19.10
2017,07,22,16,04,19.20
2017,07,22,16,05,19.20
2017,07,22,16,06,19.20
2017,07,22,16,07,19.20
2017,07,22,16,08,19.20
2017,07,22,16,09,19.20
2017,07,22,16,10,19.10
2017,07,22,16,11,19.10
2017,07,22,16,12,19.10
2017,07,22,16,13,19.10
2017,07,22,16,14,19.10
2017,07,22,16,15,19.10
2017,07,22,16,16,19.10
2017,07,22,16,17,19.10
2017,07,22,16,18,19.10
2017,07,22,16,19,19.10
2017,07,22,16,20,19.20
2017,07,22,16,21,19.20
2017,07,22,16,22,19.20
2017,07,22,16,23,19.20
2017,07,22,16,24,19.30
2017,07,22,16,25,19.30
2017,07,22,16,26,19.40
2017,07,22,16,27,19.50
2017,07,22,16,28,19.50
2017,07,22,16,29,19.50
2017,07,22,16,30,19.50
2017,07,22,16,31,19.50
2017,07,22,16,32,19.50
2017,07,22,16,33,19.50
2017,07,22,16,34,19.60
2017,07,22,16,35,19.60
2017,07,22,16,36,19.60
2017,07,22,16,37,19.60
2017,07,22,16,38,19.70
2017,07,22,16,39,19.70
2017,07,22,16,40,19.80
2017,07,22,16,41,19.90
2017,07,22,16,42,20.00
2017,07,22,16,43,20.00
2017,07,22,16,44,20.00
2017,07,22,16,45,19.90
2017,07,22,16,46,19.90
2017,07,22,16,47,19.90
2017,07,22,16,48,19.80
2017,07,22,16,49,19.80
2017,07,22,16,50,19.80
2017,07,22,16,51,19.70
2017,07,22,16,52,19.70
2017,07,22,16,53,19.70
2017,07,22,16,54,19.70
2017,07,22,16,55,19.70
2017,07,22,16,56,19.70
2017,07,22,16,57,19.70
2017,07,22,16,58,19.70
2017,07,22,16,59,19.70
2017,07,22,17,00,19.80
2017,07,22,17,01,19.80
2017,07,22,17,02,19.80
2017,07,22,17,03,19.80
2017,07,22,17,04,19.80
2017,07,22,17,05,19.80
2017,07,22,17,06,19.80
2017,07,22,17,07,19.80
2017,07,22,17,08,19.80
2017,07,22,17,09,19.80
2017,07,22,17,10,19.90
2017,07,22,17,11,20.00
2017,07,22,17,12,20.00
2017,07,22,17,13,20.10
2017,07,22,17,14,20.10
2017,07,22,17,15,20.10
2017,07,22,17,16,20.10
2017,07,22,17,17,20.10
2017,07,22,17,18,20.00
2017,07,22,17,19,19.90
2017,07,22,17,20,19.90
2017,07,22,17,21,19.90
2017,07,22,17,22,19.90
2017,07,22,17,23,19.80
2017,07,22,17,24,19.80
2017,07,22,17,25,19.70
2017,07,22,17,26,19.60
2017,07,22,17,27,19.50
2017,07,22,17,28,19.40
2017,07,22,17,29,19.30
2017,07,22,17,30,19.20
2017,07,22,17,31,19.20
2017,07,22,17,32,19.10
2017,07,22,17,33,19.10
2017,07,22,17,34,19.00
2017,07,22,17,35,18.90
2017,07,22,17,36,18.90
2017,07,22,17,37,18.80
2017,07,22,17,38,18.80
2017,07,22,17,39,18.80
2017,07,22,17,40,18.80
2017,07,22,17,41,18.80
2017,07,22,17,42,18.80
2017,07,22,17,43,18.80
2017,07,22,17,44,18.80
2017,07,22,17,45,18.80
2017,07,22,17,46,18.80
2017,07,22,17,47,18.70
2017,07,22,17,48,18.70
2017,07,22,17,49,18.80
2017,07,22,17,50,18.80
2017,07,22,17,51,18.80
2017,07,22,17,52,18.80
2017,07,22,17,53,18.80
2017,07,22,17,54,18.80
2017,07,22,17,55,18.80
2017,07,22,17,56,18.70
2017,07,22,17,57,18.70
2017,07,22,17,58,18.70
2017,07,22,17,59,18.70
2017,07,22,18,00,18.70
2017,07,22,18,01,18.70
2017,07,22,18,02,18.60
2017,07,22,18,03,18.60
2017,07,22,18,04,18.60
2017,07,22,18,05,18.60
2017,07,22,18,06,18.60
2017,07,22,18,07,18.50
2017,07,22,18,08,18.50
2017,07,22,18,09,18.50
2017,07,22,18,10,18.50
2017,07,22,18,11,18.50
2017,07,22,18,12,18.50
2017,07,22,18,13,18.50
2017,07,22,18,14,18.50
2017,07,22,18,15,18.50
2017,07,22,18,16,18.50
2017,07,22,18,17,18.40
2017,07,22,18,18,18.40
2017,07,22,18,19,18.40
2017,07,22,18,20,18.40
2017,07,22,18,21,18.40
2017,07,22,18,22,18.40
2017,07,22,18,23,18.40
2017,07,22,18,24,18.40
2017,07,22,18,25,18.40
2017,07,22,18,26,18.40
2017,07,22,18,27,18.40
2017,07,22,18,28,18.40
2017,07,22,18,29,18.40
2017,07,22,18,30,18.40
2017,07,22,18,31,18.40
2017,07,22,18,32,18.40
2017,07,22,18,33,18.40
2017,07,22,18,34,18.40
2017,07,22,18,35,18.40
2017,07,22,18,36,18.40
2017,07,22,18,37,18.40
2017,07,22,18,38,18.40
2017,07,22,18,39,18.40
2017,07,22,18,40,18.40
2017,07,22,18,41,18.40
2017,07,22,18,42,18.40
2017,07,22,18,43,18.40
2017,07,22,18,44,18.40
2017,07,22,18,45,18.40
2017,07,22,18,46,18.40
2017,07,22,18,47,18.40
2017,07,22,18,48,18.40
2017,07,22,18,49,18.50
2017,07,22,18,50,18.50
2017,07,22,18,51,18.50
2017,07,22,18,52,18.60
2017,07,22,18,53,18.60
2017,07,22,18,54,18.50
2017,07,22,18,55,18.50
2017,07,22,18,56,18.50
2017,07,22,18,57,18.50
2017,07,22,18,58,18.40
2017,07,22,18,59,18.50
2017,07,22,19,00,18.40
2017,07,22,19,01,18.40
2017,07,22,19,02,18.40
2017,07,22,19,03,18.40
2017,07,22,19,04,18.40
2017,07,22,19,05,18.40
2017,07,22,19,06,18.40
2017,07,22,19,07,18.40
2017,07,22,19,08,18.40
2017,07,22,19,09,18.40
2017,07,22,19,10,18.30
2017,07,22,19,11,18.30
2017,07,22,19,12,18.30
2017,07,22,19,13,18.30
2017,07,22,19,14,18.30
2017,07,22,19,15,18.20
2017,07,22,19,16,18.20
2017,07,22,19,17,18.20
2017,07,22,19,18,18.20
2017,07,22,19,19,18.10
2017,07,22,19,20,18.10
2017,07,22,19,21,18.10
2017,07,22,19,22,18.10
2017,07,22,19,23,18.10
2017,07,22,19,24,18.10
2017,07,22,19,25,18.00
2017,07,22,19,26,18.00
2017,07,22,19,27,18.00
2017,07,22,19,28,17.90
2017,07,22,19,29,17.90
2017,07,22,19,30,17.90
2017,07,22,19,31,17.90
2017,07,22,19,32,17.80
2017,07,22,19,33,17.80
2017,07,22,19,34,17.80
2017,07,22,19,35,17.80
2017,07,22,19,36,17.70
2017,07,22,19,37,17.70
2017,07,22,19,38,17.70
2017,07,22,19,39,17.70
2017,07,22,19,40,17.70
2017,07,22,19,41,17.60
2017,07,22,19,42,17.60
2017,07,22,19,43,17.60
2017,07,22,19,44,17.60
2017,07,22,19,45,17.50
2017,07,22,19,46,17.50
2017,07,22,19,47,17.50
2017,07,22,19,48,17.50
2017,07,22,19,49,17.50
2017,07,22,19,50,17.50
2017,07,22,19,51,17.50
2017,07,22,19,52,17.50
2017,07,22,19,53,17.50
2017,07,22,19,54,17.50
2017,07,22,19,55,17.50
2017,07,22,19,56,17.50
2017,07,22,19,57,17.50
2017,07,22,19,58,17.50
2017,07,22,19,59,17.50
2017,07,22,20,00,17.40
2017,07,22,20,01,17.40
2017,07,22,20,02,17.40
2017,07,22,20,03,17.40
2017,07,22,20,04,17.40
2017,07,22,20,05,17.40
2017,07,22,20,06,17.40
2017,07,22,20,07,17.40
2017,07,22,20,08,17.40
2017,07,22,20,09,17.40
2017,07,22,20,10,17.40
2017,07,22,20,11,17.40
2017,07,22,20,12,17.40
2017,07,22,20,13,17.40
2017,07,22,20,14,17.40
2017,07,22,20,15,17.40
2017,07,22,20,16,17.40
2017,07,22,20,17,17.40
2017,07,22,20,18,17.40
2017,07,22,20,19,17.40
2017,07,22,20,20,17.40
2017,07,22,20,21,17.40
2017,07,22,20,22,17.40
2017,07,22,20,23,17.40
2017,07,22,20,24,17.30
2017,07,22,20,25,17.30
2017,07,22,20,26,17.30
2017,07,22,20,27,17.30
2017,07,22,20,28,17.30
2017,07,22,20,29,17.30
2017,07,22,20,30,17.30
2017,07,22,20,31,17.30
2017,07,22,20,32,17.30
2017,07,22,20,33,17.30
2017,07,22,20,34,17.30
2017,07,22,20,35,17.20
2017,07,22,20,36,17.20
2017,07,22,20,37,17.20
2017,07,22,20,38,17.20
2017,07,22,20,39,17.20
2017,07,22,20,40,17.20
2017,07,22,20,41,17.20
2017,07,22,20,42,17.20
2017,07,22,20,43,17.20
2017,07,22,20,44,17.10
2017,07,22,20,45,17.10
2017,07,22,20,46,17.10
2017,07,22,20,47,17.10
2017,07,22,20,48,17.10
2017,07,22,20,49,17.10
2017,07,22,20,50,17.10
2017,07,22,20,51,17.10
2017,07,22,20,52,17.10
2017,07,22,20,53,17.10
2017,07,22,20,54,17.10
2017,07,22,20,55,17.00
2017,07,22,20,56,17.00
2017,07,22,20,57,17.00
2017,07,22,20,58,17.00
2017,07,22,20,59,17.00
2017,07,22,21,00,16.90
2017,07,22,21,01,16.90
2017,07,22,21,02,16.90
2017,07,22,21,03,16.90
2017,07,22,21,04,16.80
2017,07,22,21,05,16.80
2017,07,22,21,06,16.80
2017,07,22,21,07,16.80
2017,07,22,21,08,16.80
2017,07,22,21,09,16.80
2017,07,22,21,10,16.70
2017,07,22,21,11,16.70
2017,07,22,21,12,16.70
2017,07,22,21,13,16.70
2017,07,22,21,14,16.70
2017,07,22,21,15,16.70
2017,07,22,21,16,16.60
2017,07,22,21,17,16.60
2017,07,22,21,18,16.60
2017,07,22,21,19,16.60
2017,07,22,21,20,16.50
2017,07,22,21,21,16.50
2017,07,22,21,22,16.50
2017,07,22,21,23,16.40
2017,07,22,21,24,16.40
2017,07,22,21,25,16.40
2017,07,22,21,26,16.40
2017,07,22,21,27,16.30
2017,07,22,21,28,16.30
2017,07,22,21,29,16.30
2017,07,22,21,30,16.30
2017,07,22,21,31,16.30
2017,07,22,21,32,16.30
2017,07,22,21,33,16.30
2017,07,22,21,34,16.30
2017,07,22,21,35,16.20
2017,07,22,21,36,16.20
2017,07,22,21,37,16.20
2017,07,22,21,38,16.20
2017,07,22,21,39,16.20
2017,07,22,21,40,16.20
2017,07,22,21,41,16.20
2017,07,22,21,42,16.20
2017,07,22,21,43,16.20
2017,07,22,21,44,16.20
2017,07,22,21,45,16.10
2017,07,22,21,46,16.10
2017,07,22,21,47,16.10
2017,07,22,21,48,16.10
2017,07,22,21,49,16.10
2017,07,22,21,50,16.10
2017,07,22,21,51,16.10
2017,07,22,21,52,16.10
2017,07,22,21,53,16.10
2017,07,22,21,54,16.10
2017,07,22,21,55,16.10
2017,07,22,21,56,16.10
2017,07,22,21,57,16.10
2017,07,22,21,58,16.10
2017,07,22,21,59,16.10
2017,07,22,22,00,16.10
2017,07,22,22,01,16.10
2017,07,22,22,02,16.10
2017,07,22,22,03,16.10
2017,07,22,22,04,16.10
2017,07,22,22,05,16.10
2017,07,22,22,06,16.10
2017,07,22,22,07,16.10
2017,07,22,22,08,16.10
2017,07,22,22,09,16.10
2017,07,22,22,10,16.10
2017,07,22,22,11,16.10
2017,07,22,22,12,16.10
2017,07,22,22,13,16.10
2017,07,22,22,14,16.10
2017,07,22,22,15,16.10
2017,07,22,22,16,16.10
2017,07,22,22,17,16.00
2017,07,22,22,18,16.00
2017,07,22,22,19,16.00
2017,07,22,22,20,16.00
2017,07,22,22,21,15.90
2017,07,22,22,22,15.90
2017,07,22,22,23,15.90
2017,07,22,22,24,15.90
2017,07,22,22,25,15.90
2017,07,22,22,26,15.90
2017,07,22,22,27,15.90
2017,07,22,22,28,15.90
2017,07,22,22,29,15.90
2017,07,22,22,30,15.90
2017,07,22,22,31,15.90
2017,07,22,22,32,15.90
2017,07,22,22,33,15.90
2017,07,22,22,34,15.90
2017,07,22,22,35,15.90
2017,07,22,22,36,15.90
2017,07,22,22,37,15.90
2017,07,22,22,38,15.90
2017,07,22,22,39,15.90
2017,07,22,22,40,15.90
2017,07,22,22,41,15.90
2017,07,22,22,42,15.90
2017,07,22,22,43,15.90
2017,07,22,22,44,15.90
2017,07,22,22,45,15.90
2017,07,22,22,46,15.90
2017,07,22,22,47,15.90
2017,07,22,22,48,15.90
2017,07,22,22,49,15.90
2017,07,22,22,50,15.90
2017,07,22,22,51,15.90
2017,07,22,22,52,15.90
2017,07,22,22,53,15.90
2017,07,22,22,54,15.90
2017,07,22,22,55,15.90
2017,07,22,22,56,15.90
2017,07,22,22,57,15.90
2017,07,22,22,58,15.90
2017,07,22,22,59,15.90
2017,07,22,23,00,15.90
2017,07,22,23,01,15.90
2017,07,22,23,02,15.90
2017,07,22,23,03,15.90
2017,07,22,23,04,15.90
2017,07,22,23,05,15.90
2017,07,22,23,06,15.90
2017,07,22,23,07,15.90
2017,07,22,23,08,15.90
2017,07,22,23,09,15.90
2017,07,22,23,10,15.90
2017,07,22,23,11,15.90
2017,07,22,23,12,15.90
2017,07,22,23,13,15.90
2017,07,22,23,14,15.90
2017,07,22,23,15,15.90
2017,07,22,23,16,15.90
2017,07,22,23,17,15.90
2017,07,22,23,18,15.80
2017,07,22,23,19,15.90
2017,07,22,23,20,15.90
2017,07,22,23,21,15.80
2017,07,22,23,22,15.80
2017,07,22,23,23,15.80
2017,07,22,23,24,15.80
2017,07,22,23,25,15.80
2017,07,22,23,26,15.80
2017,07,22,23,27,15.80
2017,07,22,23,28,15.80
2017,07,22,23,29,15.80
2017,07,22,23,30,15.80
2017,07,22,23,31,15.80
2017,07,22,23,32,15.80
2017,07,22,23,33,15.80
2017,07,22,23,34,15.80
2017,07,22,23,35,15.80
2017,07,22,23,36,15.80
2017,07,22,23,37,15.80
2017,07,22,23,38,15.80
2017,07,22,23,39,15.80
2017,07,22,23,40,15.80
2017,07,22,23,41,15.80
2017,07,22,23,42,15.80
2017,07,22,23,43,15.80
2017,07,22,23,44,15.80
2017,07,22,23,45,15.80
2017,07,22,23,46,15.80
2017,07,22,23,47,15.80
2017,07,22,23,48,15.80
2017,07,22,23,49,15.80
2017,07,22,23,50,15.80
2017,07,22,23,51,15.80
2017,07,22,23,52,15.80
2017,07,22,23,53,15.80
2017,07,22,23,54,15.80
2017,07,22,23,55,15.80
2017,07,22,23,56,15.80
2017,07,22,23,57,15.80
2017,07,22,23,58,15.80
2017,07,22,23,59,15.80
